FW6835 Weather Reports


Display with metric or nautical units.
time (UTC)temp
F
wind
direction
speed
MPH
gust
MPH
rain 1hr
in
rain 24hr
in
rain mn
in
humidity
%
barometer
mb
20260903065548 59 167 0.0 0.0 0.00 0.00 0.00 83 1020.8
20260903065041 60 141 0.0 0.0 0.00 0.00 0.00 83 1021.0
20260903064541 60 140 0.0 0.0 0.00 0.00 0.00 84 1020.9
20260903064039 60 126 0.0 0.0 0.00 0.00 0.00 84 1020.9
20260903063538 59 126 0.0 0.0 0.00 0.00 0.00 84 1021.1
20260903063037 59 126 0.0 0.0 0.00 0.00 0.00 84 1021.0
20260903062536 59 124 0.0 0.0 0.00 0.00 0.00 85 1021.0
20260903062037 59 124 0.0 0.0 0.00 0.00 0.00 87 1021.0
20260903061534 58 124 0.0 0.0 0.00 0.00 0.00 87 1021.0
20260903061036 58 124 0.0 0.0 0.00 0.00 0.00 89 1020.9
20260903060531 57 124 0.0 0.0 0.00 0.00 0.00 89 1020.9
20260903060030 57 124 0.0 0.0 0.00 0.00 0.00 90 1020.9
20260903055529 56 124 0.0 0.0 0.00 0.00 0.00 91 1020.8
20260903055128 55 124 0.0 0.0 0.00 0.00 0.00 91 1020.8
20260903054529 55 124 0.0 0.0 0.00 0.00 0.00 91 1020.9
20260903054027 55 124 0.0 0.0 0.00 0.00 0.00 91 1020.9
20260903053529 55 124 0.0 0.0 0.00 0.00 0.00 91 1021.0
20260903053024 55 124 0.0 0.0 0.00 0.00 0.00 91 1020.9
20260903052524 55 124 0.0 0.0 0.00 0.00 0.00 91 1021.0
20260903052024 55 124 0.0 0.0 0.00 0.00 0.00 91 1021.0
20260903051540 55 124 0.0 0.0 0.00 0.00 0.00 90 1021.1
20260903051028 55 124 0.0 0.0 0.00 0.00 0.00 90 1021.0
20260903050522 55 124 0.0 0.0 0.00 0.00 0.00 90 1021.0
20260903050022 55 124 0.0 0.0 0.00 0.00 0.00 89 1021.1
20260903045522 55 124 0.0 0.0 0.00 0.00 0.00 89 1020.9
20260903045026 55 124 0.0 0.0 0.00 0.00 0.00 89 1021.0
20260903044521 55 124 0.0 0.0 0.00 0.00 0.00 89 1020.8
20260903044020 55 124 0.0 0.0 0.00 0.00 0.00 89 1020.8
20260903043519 55 124 0.0 0.0 0.00 0.00 0.00 90 1021.0
20260903043045 55 125 0.0 0.0 0.00 0.00 0.00 90 1021.1
20260903042519 55 126 0.0 0.0 0.00 0.00 0.00 90 1021.0
20260903042021 55 125 0.0 0.0 0.00 0.00 0.00 90 1021.0
20260903041521 55 126 0.0 0.0 0.00 0.00 0.00 90 1020.9
20260903041017 55 126 0.0 0.0 0.00 0.00 0.00 90 1021.0
20260903040517 55 126 0.0 0.0 0.00 0.00 0.00 91 1020.9
20260903040018 55 126 0.0 0.0 0.00 0.00 0.00 91 1020.9
20260903035517 55 129 0.0 0.0 0.00 0.00 0.00 91 1021.0
20260903035017 55 129 0.0 0.0 0.00 0.00 0.00 92 1020.9
20260903034529 55 121 0.0 0.0 0.00 0.00 0.00 92 1020.8
20260903034017 55 121 0.0 0.0 0.00 0.00 0.00 92 1020.8
20260903033518 55 121 0.0 0.0 0.00 0.00 0.00 92 1020.7
20260903033019 55 121 0.0 0.0 0.00 0.00 0.00 92 1020.7
20260903032515 55 121 0.0 0.0 0.00 0.00 0.00 92 1020.7
20260903032017 55 121 0.0 0.0 0.00 0.00 0.00 91 1020.7
20260903031515 55 121 0.0 0.0 0.00 0.00 0.00 91 1020.7
20260903031015 55 121 0.0 0.0 0.00 0.00 0.00 91 1020.7
20260903030513 55 121 0.0 0.0 0.00 0.00 0.00 91 1020.6
20260903030013 55 121 0.0 0.0 0.00 0.00 0.00 91 1020.5
20260903025514 55 121 0.0 0.0 0.00 0.00 0.00 91 1020.5
20260903025013 55 121 0.0 0.0 0.00 0.00 0.00 91 1020.6
20260903024513 55 121 0.0 0.0 0.00 0.00 0.00 92 1020.7
20260903024013 55 121 0.0 0.0 0.00 0.00 0.00 92 1020.6
20260903023512 55 130 0.0 0.0 0.00 0.00 0.00 91 1020.6
20260903023012 55 130 0.0 0.0 0.00 0.00 0.00 91 1020.6
20260903022511 55 130 0.0 0.0 0.00 0.00 0.00 91 1020.5
20260903022011 55 130 0.0 0.0 0.00 0.00 0.00 91 1020.5
20260903021514 55 130 0.0 0.0 0.00 0.00 0.00 91 1020.6
20260903021012 56 130 0.0 0.0 0.00 0.00 0.00 91 1020.6
20260903020511 56 130 0.0 0.0 0.00 0.00 0.00 90 1020.7
20260903020013 56 130 0.0 0.0 0.00 0.00 0.00 90 1020.7
20260903015510 56 130 0.0 0.0 0.00 0.00 0.00 90 1020.7
20260903015009 56 130 0.0 0.0 0.00 0.00 0.00 91 1020.6
20260903014516 56 130 0.0 0.0 0.00 0.00 0.00 91 1020.6
20260903014012 56 130 0.0 0.0 0.00 0.00 0.00 91 1020.5
20260903013511 56 130 0.0 0.0 0.00 0.00 0.00 91 1020.5
20260903013010 56 130 0.0 0.0 0.00 0.00 0.00 91 1020.6
20260903012508 56 130 0.0 0.0 0.00 0.00 0.00 91 1020.6
20260903012009 56 131 0.0 0.0 0.00 0.00 0.00 91 1020.6
20260903011514 56 111 0.0 0.0 0.00 0.00 0.00 90 1020.6
20260903011009 56 111 0.0 0.0 0.00 0.00 0.00 90 1020.5
20260903010507 56 111 0.0 0.0 0.00 0.00 0.00 90 1020.6
20260903010007 56 111 0.0 0.0 0.00 0.00 0.00 91 1020.6
20260903005507 56 111 0.0 0.0 0.00 0.00 0.00 91 1020.7
20260903005008 56 111 0.0 0.0 0.00 0.00 0.00 92 1020.6
20260903004508 56 111 0.0 0.0 0.00 0.00 0.00 92 1020.6
20260903004007 56 111 0.0 0.0 0.00 0.00 0.00 92 1020.7
20260903003507 55 111 0.0 0.0 0.00 0.00 0.00 92 1020.5
20260903003009 55 111 0.0 0.0 0.00 0.00 0.00 92 1020.6
20260903002506 55 111 0.0 0.0 0.00 0.00 0.00 92 1020.6
20260903002006 55 111 0.0 0.0 0.00 0.00 0.00 92 1020.7
20260903001506 55 111 0.0 0.0 0.00 0.00 0.00 92 1020.5
20260903001006 55 111 0.0 0.0 0.00 0.00 0.00 92 1020.6
20260903000504 55 111 0.0 0.0 0.00 0.00 0.00 92 1020.6
20260903000004 56 111 0.0 0.0 0.00 0.00 0.00 92 1020.6
20260902235504 56 111 0.0 0.0 0.00 0.00 0.00 92 1020.6
20260902235006 56 111 0.0 0.0 0.00 0.00 0.00 92 1020.6
20260902234502 56 111 0.0 0.0 0.00 0.00 0.00 92 1020.7
20260902234002 56 111 0.0 0.0 0.00 0.00 0.00 92 1020.6
20260902233505 56 111 0.0 0.0 0.00 0.00 0.00 92 1020.6
20260902233002 56 111 0.0 0.0 0.00 0.00 0.00 92 1020.6
20260902232503 56 111 0.0 0.0 0.00 0.00 0.00 92 1020.6
20260902232001 56 111 0.0 0.0 0.00 0.00 0.00 92 1020.6
20260902231501 56 111 0.0 0.0 0.00 0.00 0.00 92 1020.5
20260902231002 56 111 0.0 0.0 0.00 0.00 0.00 92 1020.5
20260902230603 56 111 0.0 0.0 0.00 0.00 0.00 92 1020.6
20260902230106 56 111 0.0 0.0 0.00 0.00 0.00 92 1020.6
20260902225559 56 111 0.0 0.0 0.00 0.00 0.00 92 1020.7
20260902225058 56 111 0.0 0.0 0.00 0.00 0.00 93 1020.6
20260902224611 56 111 0.0 0.0 0.00 0.00 0.00 92 1020.6
20260902224058 56 111 0.0 0.0 0.00 0.00 0.00 93 1020.7
20260902223558 56 111 0.0 0.0 0.00 0.00 0.00 92 1020.7
20260902223058 56 111 0.0 0.0 0.00 0.00 0.00 92 1020.7
20260902222559 56 111 0.0 0.0 0.00 0.00 0.00 92 1020.8
20260902222058 56 111 0.0 0.0 0.00 0.00 0.00 91 1020.8
20260902221556 56 111 0.0 0.0 0.00 0.00 0.00 91 1020.7
20260902221055 56 111 0.0 0.0 0.00 0.00 0.00 91 1020.7
20260902220554 57 111 0.0 0.0 0.00 0.00 0.00 91 1020.7
20260902220057 57 111 0.0 0.0 0.00 0.00 0.00 91 1020.9
20260902215554 57 111 0.0 0.0 0.00 0.00 0.00 90 1020.8
20260902215052 57 111 0.0 0.0 0.00 0.00 0.00 90 1020.7
20260902214556 58 111 0.0 0.0 0.00 0.00 0.00 89 1020.8
20260902214053 58 111 0.0 0.0 0.00 0.00 0.00 89 1020.8
20260902213552 58 111 0.0 0.0 0.00 0.00 0.00 89 1020.9
20260902213054 58 111 0.0 0.0 0.00 0.00 0.00 89 1020.8
20260902212552 58 111 0.0 0.0 0.00 0.00 0.00 89 1020.7
20260902212052 58 111 0.0 0.0 0.00 0.00 0.00 89 1020.7
20260902211551 58 111 0.0 0.0 0.00 0.00 0.00 89 1020.8
20260902211053 58 111 0.0 0.0 0.00 0.00 0.00 89 1020.7
20260902210551 58 111 0.0 0.0 0.00 0.00 0.00 89 1020.7
20260902210051 58 111 0.0 0.0 0.00 0.00 0.00 89 1020.6
20260902205550 58 111 0.0 0.0 0.00 0.00 0.00 89 1020.5
20260902205051 58 111 0.0 0.0 0.00 0.00 0.00 89 1020.5
20260902204551 58 111 0.0 0.0 0.00 0.00 0.00 89 1020.5
20260902204050 58 111 0.0 0.0 0.00 0.00 0.00 89 1020.5
20260902203554 58 111 0.0 0.0 0.00 0.00 0.00 89 1020.5
20260902203050 58 111 0.0 0.0 0.00 0.00 0.00 89 1020.5
20260902202551 58 111 0.0 0.0 0.00 0.00 0.00 89 1020.5
20260902202051 58 111 0.0 0.0 0.00 0.00 0.00 89 1020.6
20260902201603 58 111 0.0 0.0 0.00 0.00 0.00 89 1020.4
20260902201050 58 111 0.0 0.0 0.00 0.00 0.00 89 1020.4
20260902200549 58 111 0.0 0.0 0.00 0.00 0.00 89 1020.5
20260902200117 58 112 0.0 0.0 0.00 0.00 0.00 89 1020.4
20260902195549 58 112 0.0 0.0 0.00 0.00 0.00 89 1020.5
20260902195049 58 112 0.0 0.0 0.00 0.00 0.00 89 1020.6
20260902194549 58 113 0.0 0.0 0.00 0.00 0.00 89 1020.6
20260902194051 58 113 0.0 0.0 0.00 0.00 0.00 89 1020.6
20260902193549 58 113 0.0 0.0 0.00 0.00 0.00 89 1020.5
20260902193049 58 113 0.0 0.0 0.00 0.00 0.00 89 1020.5
20260902192548 58 113 0.0 0.0 0.00 0.00 0.00 89 1020.4
20260902192048 58 113 0.0 0.0 0.00 0.00 0.00 89 1020.4
20260902191551 58 113 0.0 0.0 0.00 0.00 0.00 88 1020.4
20260902191047 58 113 0.0 0.0 0.00 0.00 0.00 88 1020.4
20260902190547 58 113 0.0 0.0 0.00 0.00 0.00 88 1020.3
20260902190059 58 113 0.0 0.0 0.00 0.00 0.00 88 1020.1
20260902185550 58 113 0.0 0.0 0.00 0.00 0.00 87 1020.3
20260902185053 59 113 0.0 0.0 0.00 0.00 0.00 87 1020.2
20260902184546 59 113 0.0 0.0 0.00 0.00 0.00 87 1020.2
20260902184046 59 115 0.0 0.0 0.00 0.00 0.00 87 1020.2
20260902183550 59 115 0.0 0.0 0.00 0.00 0.00 87 1020.3
20260902183049 59 115 0.0 0.0 0.00 0.00 0.00 87 1020.1
20260902182546 59 117 0.0 0.0 0.00 0.00 0.00 87 1020.1
20260902182046 59 122 0.0 0.0 0.00 0.00 0.00 87 1020.1
20260902181546 59 130 0.0 0.0 0.00 0.00 0.00 87 1020.0
20260902181045 60 130 0.0 0.0 0.00 0.00 0.00 87 1020.0
20260902180545 60 130 0.0 0.0 0.00 0.00 0.00 87 1020.1
20260902180045 60 130 0.0 0.0 0.00 0.00 0.00 87 1020.0
20260902175545 60 130 0.0 0.0 0.00 0.00 0.00 86 1019.9
20260902175045 60 130 0.0 0.0 0.00 0.00 0.00 86 1019.8
20260902174546 61 130 0.0 0.0 0.00 0.00 0.00 85 1019.9
20260902174045 61 130 0.0 0.0 0.00 0.00 0.00 85 1019.8
20260902173546 61 130 0.0 0.0 0.00 0.00 0.00 85 1019.9
20260902173045 62 130 0.0 0.0 0.00 0.00 0.00 85 1020.1
20260902172544 62 130 0.0 0.0 0.00 0.00 0.00 84 1019.9
20260902172045 62 130 0.0 0.0 0.00 0.00 0.00 83 1019.8
20260902171545 63 130 0.0 0.0 0.00 0.00 0.00 83 1019.8
20260902171048 64 130 0.0 0.0 0.00 0.00 0.00 82 1019.9
20260902170547 64 130 0.0 0.0 0.00 0.00 0.00 82 1019.9
20260902170043 65 130 0.0 0.0 0.00 0.00 0.00 81 1019.9
20260902165543 65 130 0.0 0.0 0.00 0.00 0.00 80 1019.9
20260902165047 66 130 0.0 0.0 0.00 0.00 0.00 79 1019.9
20260902164543 66 130 0.0 0.0 0.00 0.00 0.00 79 1020.0
20260902164043 67 130 0.0 0.0 0.00 0.00 0.00 78 1020.0
20260902163543 67 130 0.0 0.0 0.00 0.00 0.00 78 1019.9
20260902163042 67 131 0.0 0.0 0.00 0.00 0.00 78 1020.0
20260902162542 67 131 0.0 0.0 0.00 0.00 0.00 78 1020.0
20260902162044 67 131 0.0 0.0 0.00 0.00 0.00 77 1020.0
20260902161550 67 132 0.0 0.0 0.00 0.00 0.00 77 1019.9
20260902161042 68 132 0.0 0.0 0.00 0.00 0.00 77 1020.1
20260902160541 68 132 0.0 0.0 0.00 0.00 0.00 76 1020.0
20260902160041 68 132 0.0 0.0 0.00 0.00 0.00 77 1020.0
20260902155541 68 132 0.0 0.0 0.00 0.00 0.00 74 1020.0
20260902155044 68 132 0.0 0.0 0.00 0.00 0.00 74 1020.0
20260902154540 68 132 0.0 0.0 0.00 0.00 0.00 76 1020.0
20260902154040 68 133 0.0 0.0 0.00 0.00 0.00 75 1019.9
20260902153540 68 133 0.0 0.0 0.00 0.00 0.00 74 1019.9
20260902153040 68 134 0.0 0.0 0.00 0.00 0.00 74 1020.0
20260902152541 69 134 0.0 0.0 0.00 0.00 0.00 73 1020.0
20260902152043 69 142 0.0 0.0 0.00 0.00 0.00 74 1020.1
20260902151539 69 142 0.0 0.0 0.00 0.00 0.00 74 1020.2
20260902151039 69 142 0.0 0.0 0.00 0.00 0.00 72 1020.3
20260902150541 69 254 0.0 0.0 0.00 0.00 0.00 76 1020.3
20260902150037 69 107 0.0 0.0 0.00 0.00 0.00 74 1020.3
20260902145537 68 107 0.0 0.0 0.00 0.00 0.00 75 1020.5
20260902145036 68 109 0.0 0.0 0.00 0.00 0.00 75 1020.4
20260902144536 68 78 0.0 0.0 0.00 0.00 0.00 75 1020.5
20260902144037 67 80 0.0 0.0 0.00 0.00 0.00 73 1020.6
20260902143536 67 93 0.0 0.0 0.00 0.00 0.00 76 1020.6
20260902143035 67 93 0.0 0.0 0.00 0.00 0.00 76 1020.6
20260902142536 67 91 0.0 0.0 0.00 0.00 0.00 77 1020.6
20260902142035 67 94 0.0 0.0 0.00 0.00 0.00 76 1020.6
20260902141538 66 107 0.0 0.0 0.00 0.00 0.00 78 1020.6
20260902141034 66 77 0.0 0.0 0.00 0.00 0.00 78 1020.8
20260902140533 66 98 0.0 0.0 0.00 0.00 0.00 80 1020.8
20260902140035 66 98 0.0 0.0 0.00 0.00 0.00 79 1021.0
20260902135532 66 99 0.0 0.0 0.00 0.01 0.00 79 1021.0
20260902135032 66 99 0.0 0.0 0.00 0.01 0.00 79 1021.1
20260902134532 66 99 0.0 0.0 0.00 0.01 0.00 80 1020.9
20260902134032 66 99 0.0 0.0 0.00 0.01 0.00 78 1020.9
20260902133532 66 96 0.0 0.0 0.00 0.01 0.00 81 1020.8
20260902133032 66 96 0.0 0.0 0.00 0.01 0.00 80 1021.0
20260902132533 66 84 0.0 0.0 0.00 0.01 0.00 78 1021.0
20260902132031 66 98 0.0 0.0 0.00 0.01 0.00 78 1021.1
20260902131531 66 246 0.0 0.0 0.00 0.01 0.00 79 1021.1
20260902131031 66 240 0.0 0.0 0.00 0.01 0.00 77 1021.0
20260902130530 66 251 0.0 0.0 0.00 0.01 0.00 76 1021.1
20260902130029 66 150 0.0 0.0 0.00 0.01 0.00 74 1021.0
20260902125529 67 242 0.0 0.0 0.00 0.01 0.00 75 1021.2
20260902125029 67 243 0.0 0.0 0.00 0.01 0.00 74 1021.1
20260902124530 67 167 0.0 0.0 0.00 0.01 0.00 73 1021.2
20260902124028 68 243 0.0 0.0 0.00 0.01 0.00 74 1021.2
20260902123528 67 213 0.0 0.0 0.00 0.01 0.00 75 1021.1
20260902123032 67 233 0.0 0.0 0.00 0.01 0.00 74 1021.2
20260902122528 67 228 0.0 0.0 0.00 0.01 0.00 75 1021.2
20260902122027 67 189 0.0 0.0 0.00 0.01 0.00 74 1021.1
20260902121527 67 262 0.0 0.0 0.00 0.01 0.00 75 1021.2
20260902121031 67 205 0.0 0.0 0.00 0.01 0.00 77 1021.3
20260902120527 66 253 0.0 0.0 0.00 0.01 0.00 74 1021.3
20260902120026 67 167 0.0 0.0 0.00 0.01 0.00 77 1021.4
20260902115525 67 189 0.0 0.0 0.00 0.01 0.00 75 1021.3
20260902115026 67 196 0.0 0.0 0.00 0.01 0.00 75 1021.4
20260902114528 67 137 0.0 0.0 0.00 0.01 0.00 74 1021.4
20260902114027 67 146 0.0 0.0 0.00 0.01 0.00 73 1021.2
20260902113526 68 201 0.0 0.0 0.00 0.01 0.00 70 1021.5
20260902113026 69 213 0.0 0.0 0.00 0.01 0.00 70 1021.4
20260902112524 69 173 0.0 0.0 0.00 0.01 0.00 72 1021.4
20260902112024 69 223 0.0 0.0 0.00 0.01 0.00 70 1021.4
20260902111534 68 123 0.0 0.0 0.00 0.01 0.00 76 1021.4
20260902111025 68 221 0.0 0.0 0.00 0.01 0.00 75 1021.4
20260902110520 67 275 0.0 0.0 0.00 0.01 0.00 73 1021.4
20260902110020 67 295 0.0 0.0 0.00 0.01 0.00 75 1021.5
20260902105524 67 161 0.0 0.0 0.00 0.01 0.00 76 1021.6
20260902105019 67 108 0.0 0.0 0.00 0.01 0.00 74 1021.8
20260902104532 67 136 0.0 0.0 0.00 0.01 0.00 77 1021.7
20260902104020 66 192 0.0 0.0 0.00 0.01 0.00 74 1021.6
20260902103517 67 250 0.0 0.0 0.00 0.01 0.00 79 1021.8
20260902103014 66 234 0.0 0.0 0.00 0.01 0.00 77 1021.6
20260902102616 66 169 0.0 0.0 0.00 0.01 0.00 79 1021.8
20260902102015 65 169 0.0 0.0 0.00 0.01 0.00 81 1021.8
20260902101513 65 98 0.0 0.0 0.00 0.01 0.00 79 1021.8
20260902101013 65 221 0.0 0.0 0.00 0.01 0.00 78 1022.1
20260902100513 65 248 0.0 0.0 0.00 0.01 0.00 78 1022.0
20260902100012 65 194 0.0 0.0 0.00 0.01 0.00 78 1021.9
20260902095513 65 238 0.0 0.0 0.00 0.01 0.00 80 1022.0
20260902095010 65 150 0.0 0.0 0.00 0.01 0.00 79 1022.1
20260902094517 65 127 0.0 0.0 0.00 0.01 0.00 81 1022.0
20260902094008 64 173 0.0 0.0 0.00 0.01 0.00 82 1022.1
20260902093511 64 213 0.0 0.0 0.00 0.01 0.00 82 1022.1
20260902093006 63 271 0.0 0.0 0.00 0.01 0.00 80 1022.1
20260902092509 63 216 0.0 0.0 0.00 0.01 0.00 80 1022.2
20260902092006 63 242 0.0 0.0 0.00 0.01 0.00 84 1022.3
20260902091505 63 171 0.0 0.0 0.00 0.01 0.00 82 1022.3
20260902091004 63 224 0.0 0.0 0.00 0.01 0.00 84 1022.2
20260902090503 63 239 0.0 0.0 0.00 0.01 0.00 82 1022.2
20260902090127 62 239 0.0 0.0 0.00 0.01 0.00 81 1022.2
20260902085606 62 175 0.0 0.0 0.00 0.01 0.00 85 1022.0
20260902085502 62 175 0.0 0.0 0.00 0.01 0.00 85 1022.1
20260902085100 62 194 0.0 0.0 0.00 0.01 0.00 83 1022.2
20260902084603 62 202 0.0 0.0 0.00 0.01 0.00 83 1022.2
20260902084100 61 220 0.0 0.0 0.00 0.01 0.00 85 1022.2
20260902083556 61 249 0.0 0.0 0.00 0.01 0.00 84 1022.3
20260902083055 61 250 0.0 0.0 0.00 0.01 0.00 83 1022.2
20260902082555 61 276 0.0 0.0 0.00 0.01 0.00 86 1022.1
20260902082053 61 218 0.0 0.0 0.00 0.01 0.00 85 1022.2
20260902081552 60 276 0.0 0.0 0.00 0.01 0.00 86 1022.1
20260902081050 60 227 0.0 0.0 0.00 0.01 0.00 87 1022.1
20260902080549 60 215 0.0 0.0 0.00 0.01 0.00 85 1022.1
20260902080056 59 210 0.0 0.0 0.00 0.01 0.00 88 1022.1
20260902075546 59 236 0.0 0.0 0.00 0.01 0.00 88 1022.1
20260902075050 59 235 0.0 0.0 0.00 0.01 0.00 90 1021.9
20260902074545 59 159 0.0 0.0 0.00 0.01 0.00 90 1022.1
20260902074045 58 212 0.0 0.0 0.00 0.01 0.00 90 1022.1
20260902073543 58 290 0.0 0.0 0.00 0.01 0.00 89 1022.0
20260902073042 58 234 0.0 0.0 0.00 0.01 0.00 90 1021.9
20260902072541 57 235 0.0 0.0 0.00 0.01 0.00 91 1021.9
20260902072044 57 253 0.0 0.0 0.00 0.01 0.00 92 1022.1
20260902071541 57 215 0.0 0.0 0.00 0.01 0.00 91 1022.0
20260902071042 57 239 0.0 0.0 0.00 0.01 0.00 92 1022.0
20260902070540 57 243 0.0 0.0 0.00 0.01 0.00 92 1022.0
20260902070040 57 243 0.0 0.0 0.00 0.01 0.00 93 1022.1